Location: Keppel Henge
(44.7900°N, 80.9447°W)
Time: 04:23:36
(UTC-04:00)

ISS - Pass Details

Date: 08 October 2017
Orbit: 401 x 408 km, 51.6° (Epoch: 22 October)

Event Time Altitude Azimuth Distance (km) Brightness Sun altitude
Rises 19:48:33 0° 297° (WNW) 2,326 1.3 -11.0°
Reaches altitude 10° 19:50:49 10° 310° (NW) 1,467 -0.2 -11.4°
Maximum altitude 19:53:43 28° 12° (NNE) 803 -2.4 -12.0°
Enters shadow 19:55:31 17° 60° (ENE) 1,110 -2.1 -12.3°
